GW3251 Weather Reports


Display with metric or nautical units.
time (UTC)temp
F
wind
direction
speed
MPH
gust
MPH
rain 1hr
in
rain 24hr
in
rain mn
in
humidity
%
barometer
mb
20260510214038 89 84 0.0 11.0 0.00 0.00 0.00 66 1012.7
20260510213541 89 83 2.0 11.0 0.00 0.00 0.00 65 1012.8
20260510213057 88 0 0.0 2.0 0.00 0.00 0.00 68 1012.8
20260510212538 86 0 0.0 2.0 0.00 0.00 0.00 69 1012.8
20260510212038 87 0 0.0 7.0 0.00 0.00 0.00 68 1013.0
20260510211616 87 0 0.0 10.0 0.00 0.00 0.00 67 1013.0
20260510211038 88 0 1.0 10.0 0.00 0.00 0.00 66 1013.2
20260510210540 89 72 0.0 4.0 0.00 0.00 0.00 64 1013.2
20260510210045 87 0 0.0 4.0 0.00 0.00 0.00 65 1013.2
20260510205538 85 0 0.0 0.0 0.00 0.00 0.00 69 1013.3
20260510205038 85 0 0.0 0.0 0.00 0.00 0.00 72 1013.4
20260510204544 86 0 0.0 3.0 0.00 0.00 0.00 69 1013.4
20260510204038 87 0 0.0 6.0 0.00 0.00 0.00 69 1013.4
20260510203537 88 78 1.0 6.0 0.00 0.00 0.00 66 1013.3
20260510203045 89 66 1.0 6.0 0.00 0.00 0.00 61 1013.2
20260510202537 90 49 2.0 6.0 0.00 0.00 0.00 60 1013.4
20260510202042 90 0 0.0 0.0 0.00 0.00 0.00 61 1013.4
20260510201553 90 0 0.0 0.0 0.00 0.00 0.00 63 1013.4
20260510201038 89 0 0.0 0.0 0.00 0.00 0.00 63 1013.4
20260510200538 88 0 0.0 0.0 0.00 0.00 0.00 63 1013.3
20260510200056 90 0 0.0 0.0 0.00 0.00 0.00 61 1013.3
20260510195537 90 0 0.0 0.0 0.00 0.00 0.00 61 1013.3
20260510195038 88 0 0.0 0.0 0.00 0.00 0.00 65 1013.3
20260510194549 87 0 0.0 6.0 0.00 0.00 0.00 66 1013.3
20260510194038 89 0 0.0 6.0 0.00 0.00 0.00 64 1013.4
20260510193541 88 0 0.0 0.0 0.00 0.00 0.00 66 1013.4
20260510193048 88 0 0.0 0.0 0.00 0.00 0.00 66 1013.3
20260510192538 89 0 0.0 0.0 0.00 0.00 0.00 68 1013.4
20260510192038 88 0 0.0 0.0 0.00 0.00 0.00 64 1013.3
20260510191612 88 0 0.0 0.0 0.00 0.00 0.00 66 1013.4
20260510191037 88 0 0.0 1.0 0.00 0.00 0.00 68 1013.3
20260510190538 87 0 0.0 9.0 0.00 0.00 0.00 69 1013.4
20260510190058 87 0 0.0 9.0 0.00 0.00 0.00 67 1013.4
20260510185540 87 0 0.0 0.0 0.00 0.00 0.00 66 1013.3
20260510185039 89 0 0.0 1.0 0.00 0.00 0.00 68 1013.3
20260510184554 87 0 0.0 1.0 0.00 0.00 0.00 68 1013.3
20260510184040 87 0 0.0 0.0 0.00 0.00 0.00 67 1013.3
20260510183538 87 0 0.0 1.0 0.00 0.00 0.00 66 1013.3
20260510183057 86 0 0.0 7.0 0.00 0.00 0.00 69 1013.4
20260510182538 87 0 0.0 7.0 0.00 0.00 0.00 66 1013.4
20260510182040 86 0 0.0 8.0 0.00 0.00 0.00 70 1013.3
20260510181546 87 0 0.0 9.0 0.00 0.00 0.00 66 1013.4
20260510181039 88 0 0.0 9.0 0.00 0.00 0.00 71 1013.5
20260510180539 86 0 0.0 2.0 0.00 0.00 0.00 70 1013.6
20260510180052 86 0 0.0 2.0 0.00 0.00 0.00 68 1013.7
20260510175538 86 0 0.0 8.0 0.00 0.00 0.00 70 1013.9
20260510175038 86 0 0.0 9.0 0.00 0.00 0.00 71 1014.0
20260510174554 86 0 0.0 9.0 0.00 0.00 0.00 70 1013.9
20260510174037 86 0 0.0 8.0 0.00 0.00 0.00 73 1013.9
20260510173538 84 0 0.0 9.0 0.00 0.00 0.00 74 1014.0
20260510173045 85 0 0.0 10.0 0.00 0.00 0.00 73 1014.2
20260510172539 87 0 0.0 10.0 0.00 0.00 0.00 70 1014.2
20260510172038 86 0 0.0 8.0 0.00 0.00 0.00 71 1014.2
20260510171552 86 0 0.0 8.0 0.00 0.00 0.00 70 1014.2
20260510171041 86 0 0.0 7.0 0.00 0.00 0.00 72 1014.3
20260510170541 85 0 0.0 7.0 0.00 0.00 0.00 72 1014.3
20260510170109 86 0 0.0 10.0 0.00 0.00 0.00 69 1014.3
20260510165538 86 0 0.0 10.0 0.00 0.00 0.00 71 1014.4
20260510165040 86 0 0.0 10.0 0.00 0.00 0.00 73 1014.5
20260510164602 86 147 0.0 1.0 0.00 0.00 0.00 75 1014.4
20260510164038 85 0 0.0 9.0 0.00 0.00 0.00 71 1014.4
20260510163540 85 0 0.0 9.0 0.00 0.00 0.00 72 1014.3
20260510163059 83 0 0.0 6.0 0.00 0.00 0.00 77 1014.4
20260510162540 83 0 0.0 6.0 0.00 0.00 0.00 74 1014.6
20260510162039 84 0 0.0 1.0 0.00 0.00 0.00 74 1014.6
20260510161549 83 0 0.0 1.0 0.00 0.00 0.00 75 1014.6
20260510161040 83 0 0.0 0.0 0.00 0.00 0.00 73 1014.6
20260510160538 83 0 0.0 11.0 0.00 0.00 0.00 75 1014.7
20260510155540 83 0 2.0 12.0 0.00 0.00 0.00 74 1014.8
20260510155043 83 0 0.0 7.0 0.00 0.00 0.00 74 1014.9
20260510154554 82 0 0.0 7.0 0.00 0.00 0.00 77 1014.9
20260510154039 82 0 0.0 10.0 0.00 0.00 0.00 77 1014.7
20260510153538 82 0 0.0 10.0 0.00 0.00 0.00 80 1014.8
20260510153050 82 0 1.0 10.0 0.00 0.00 0.00 77 1014.9
20260510152538 82 0 0.0 10.0 0.00 0.00 0.00 78 1015.0
20260510152043 81 0 0.0 5.0 0.00 0.00 0.00 80 1015.0
20260510151550 81 0 0.0 5.0 0.00 0.00 0.00 79 1015.0
20260510151038 81 0 0.0 7.0 0.00 0.00 0.00 79 1014.9
20260510150538 80 0 1.0 13.0 0.00 0.00 0.00 80 1014.9
20260510150054 80 0 0.0 13.0 0.00 0.00 0.00 82 1014.9
20260510145538 80 161 0.0 9.0 0.00 0.00 0.00 82 1015.0
20260510145038 79 0 2.0 9.0 0.00 0.00 0.00 81 1014.9
20260510144622 79 0 0.0 8.0 0.00 0.00 0.00 83 1014.9
20260510144038 79 0 0.0 12.0 0.00 0.00 0.00 83 1014.9
20260510143538 78 0 1.0 12.0 0.00 0.00 0.00 84 1014.9
20260510143048 78 135 0.0 7.0 0.00 0.00 0.00 86 1014.9
20260510142538 78 51 0.0 4.0 0.00 0.00 0.00 86 1015.0
20260510142039 77 121 0.0 4.0 0.00 0.00 0.00 87 1015.0
20260510141548 76 0 0.0 9.0 0.00 0.00 0.00 89 1015.1
20260510141039 76 0 1.0 11.0 0.00 0.00 0.00 89 1015.1
20260510140537 75 87 2.0 11.0 0.00 0.00 0.00 90 1015.1
20260510140047 75 0 2.0 10.0 0.00 0.00 0.00 91 1015.1
20260510135537 74 80 1.0 10.0 0.00 0.00 0.00 92 1015.1
20260510135036 74 0 0.0 12.0 0.00 0.00 0.00 93 1015.0
20260510134552 73 0 0.0 12.0 0.00 0.00 0.00 93 1015.0
20260510134036 73 0 1.0 12.0 0.00 0.00 0.00 94 1015.1
20260510133538 73 0 0.0 8.0 0.00 0.00 0.00 94 1015.0
20260510133045 72 0 0.0 8.0 0.00 0.00 0.00 94 1015.0
20260510132536 72 0 0.0 5.0 0.00 0.00 0.00 94 1014.9
20260510132041 72 0 0.0 8.0 0.00 0.00 0.00 95 1014.9
20260510131547 72 0 0.0 8.0 0.00 0.00 0.00 94 1014.8
20260510131037 71 0 0.0 5.0 0.00 0.00 0.00 94 1014.8
20260510130536 71 0 0.0 0.0 0.00 0.00 0.00 95 1014.7
20260510130050 71 0 0.0 0.0 0.00 0.00 0.00 94 1014.6
20260510125535 71 0 0.0 0.0 0.00 0.00 0.00 95 1014.4
20260510125035 71 0 0.0 0.0 0.00 0.00 0.00 95 1014.4
20260510124557 70 0 0.0 0.0 0.00 0.00 0.00 94 1014.2
20260510124036 70 0 0.0 0.0 0.00 0.00 0.00 94 1014.1
20260510123536 70 0 0.0 0.0 0.00 0.00 0.00 94 1014.0
20260510123049 69 0 0.0 0.0 0.00 0.00 0.00 94 1013.8
20260510122537 69 0 0.0 0.0 0.00 0.00 0.00 94 1013.6
20260510122036 69 0 0.0 0.0 0.00 0.00 0.00 94 1013.5
20260510121544 69 0 0.0 0.0 0.00 0.00 0.00 94 1013.5
20260510121036 69 0 0.0 0.0 0.00 0.00 0.00 94 1013.5
20260510120538 69 0 0.0 0.0 0.00 0.00 0.00 94 1013.4
20260510120044 69 0 0.0 0.0 0.00 0.00 0.00 94 1013.2
20260510115535 69 0 0.0 0.0 0.00 0.00 0.00 94 1013.2
20260510115036 69 0 0.0 0.0 0.00 0.00 0.00 94 1013.1
20260510114548 69 0 0.0 0.0 0.00 0.00 0.00 94 1012.8
20260510114036 69 0 0.0 0.0 0.00 0.00 0.00 94 1012.7
20260510113536 69 0 0.0 0.0 0.00 0.00 0.00 94 1012.7
20260510113046 69 0 0.0 0.0 0.00 0.00 0.00 94 1012.5
20260510112535 69 0 0.0 0.0 0.00 0.00 0.00 94 1012.7
20260510112036 69 0 0.0 0.0 0.00 0.00 0.00 93 1012.5
20260510111547 69 0 0.0 0.0 0.00 0.00 0.00 94 1012.3
20260510111037 69 0 0.0 0.0 0.00 0.00 0.00 94 1012.3
20260510110536 69 0 0.0 0.0 0.00 0.00 0.00 93 1012.4
20260510110049 70 0 0.0 0.0 0.00 0.00 0.00 94 1012.4
20260510105539 70 0 0.0 0.0 0.00 0.00 0.00 94 1012.3
20260510105038 70 0 0.0 0.0 0.00 0.00 0.00 94 1012.2
20260510104554 70 0 0.0 0.0 0.00 0.00 0.00 94 1012.1
20260510104040 70 0 0.0 0.0 0.00 0.00 0.00 94 1011.8
20260510103538 70 0 0.0 0.0 0.00 0.00 0.00 93 1011.6
20260510103056 70 0 0.0 0.0 0.00 0.00 0.00 94 1011.5
20260510102539 70 0 0.0 0.0 0.00 0.00 0.00 94 1011.3
20260510102039 70 0 0.0 1.0 0.00 0.00 0.00 93 1011.2
20260510101552 70 0 0.0 1.0 0.00 0.00 0.00 94 1011.0
20260510101042 70 0 0.0 0.0 0.00 0.00 0.00 94 1010.9
20260510100539 70 0 0.0 0.0 0.00 0.00 0.00 94 1010.9
20260510100052 70 0 0.0 0.0 0.00 0.00 0.00 94 1010.9
20260510095538 70 0 0.0 0.0 0.00 0.00 0.00 94 1011.1
20260510095038 69 0 0.0 0.0 0.00 0.00 0.00 93 1011.0
20260510094558 69 0 0.0 0.0 0.00 0.00 0.00 93 1010.9
20260510094041 69 0 0.0 0.0 0.00 0.00 0.00 93 1010.9
20260510093538 69 0 0.0 0.0 0.00 0.00 0.00 93 1011.0
20260510093112 69 0 0.0 0.0 0.00 0.00 0.00 93 1011.0
20260510092538 69 0 0.0 0.0 0.00 0.00 0.00 93 1011.0
20260510092038 68 0 0.0 0.0 0.00 0.00 0.00 93 1011.0
20260510091549 68 0 0.0 0.0 0.00 0.00 0.00 93 1010.8
20260510091038 68 0 0.0 0.0 0.00 0.00 0.00 93 1010.7
20260510090539 68 0 0.0 0.0 0.00 0.00 0.00 93 1010.9
20260510090049 69 0 0.0 0.0 0.00 0.00 0.00 93 1010.9
20260510085539 69 0 0.0 0.0 0.00 0.00 0.00 93 1010.8
20260510085038 69 0 0.0 0.0 0.00 0.00 0.00 93 1010.8
20260510084546 69 0 0.0 0.0 0.00 0.00 0.00 93 1010.8
20260510084042 69 0 0.0 0.0 0.00 0.00 0.00 93 1010.8
20260510083542 69 0 0.0 0.0 0.00 0.00 0.00 93 1010.7
20260510083047 69 0 0.0 0.0 0.00 0.00 0.00 93 1010.8
20260510082538 69 0 0.0 0.0 0.00 0.00 0.00 93 1010.8
20260510082038 69 0 0.0 0.0 0.00 0.00 0.00 92 1010.8
20260510081545 69 0 0.0 0.0 0.00 0.00 0.00 92 1010.9
20260510081038 69 0 0.0 0.0 0.00 0.00 0.00 92 1011.0
20260510080538 70 0 0.0 0.0 0.00 0.00 0.00 93 1011.0
20260510080050 70 0 0.0 0.0 0.00 0.00 0.00 92 1011.1
20260510075539 70 0 0.0 0.0 0.00 0.00 0.00 92 1010.9
20260510075043 70 0 0.0 0.0 0.00 0.00 0.00 92 1011.0
20260510074549 70 0 0.0 0.0 0.00 0.00 0.00 92 1011.0
20260510074038 70 0 0.0 0.0 0.00 0.00 0.00 92 1011.0
20260510073541 70 0 0.0 0.0 0.00 0.00 0.00 92 1011.1
20260510073047 70 0 0.0 0.0 0.00 0.00 0.00 92 1011.1
20260510072537 70 0 0.0 0.0 0.00 0.00 0.00 92 1011.0
20260510072037 70 0 0.0 0.0 0.00 0.00 0.00 92 1011.1
20260510071554 71 0 0.0 0.0 0.00 0.00 0.00 91 1011.2
20260510071037 71 0 0.0 0.0 0.00 0.00 0.00 91 1011.1
20260510070537 71 0 0.0 0.0 0.00 0.00 0.00 91 1011.3
20260510070052 71 0 0.0 0.0 0.00 0.00 0.00 91 1011.1
20260510065537 71 0 0.0 0.0 0.00 0.00 0.00 91 1011.2
20260510065037 71 0 0.0 0.0 0.00 0.00 0.00 91 1011.2
20260510064543 71 0 0.0 0.0 0.00 0.00 0.00 91 1011.2
20260510064037 71 0 0.0 0.0 0.00 0.00 0.00 90 1011.1
20260510063537 71 0 0.0 0.0 0.00 0.00 0.00 90 1011.2
20260510063047 71 0 0.0 0.0 0.00 0.00 0.00 90 1011.1
20260510062540 72 0 0.0 0.0 0.00 0.00 0.00 90 1011.2
20260510062037 72 0 0.0 0.0 0.00 0.00 0.00 90 1011.3
20260510061552 72 0 0.0 0.0 0.00 0.00 0.00 90 1011.3
20260510061037 72 0 0.0 0.0 0.00 0.00 0.00 89 1011.3
20260510060537 72 0 0.0 0.0 0.00 0.00 0.00 89 1011.3
20260510060049 72 0 0.0 0.0 0.00 0.00 0.00 89 1011.3
20260510055539 72 0 0.0 0.0 0.00 0.00 0.00 89 1011.2
20260510055037 72 0 0.0 0.0 0.00 0.00 0.00 89 1011.3
20260510054546 72 0 0.0 0.0 0.00 0.00 0.00 88 1011.4
20260510054036 72 0 0.0 6.0 0.00 0.00 0.00 88 1011.3
20260510053536 72 0 0.0 6.0 0.00 0.00 0.00 88 1011.2
20260510053058 72 0 0.0 6.0 0.00 0.00 0.00 87 1011.4
20260510052537 73 0 0.0 0.0 0.00 0.00 0.00 87 1011.4
20260510052037 73 0 0.0 0.0 0.00 0.00 0.00 87 1011.4
20260510051549 73 0 0.0 0.0 0.00 0.00 0.00 86 1011.4
20260510051037 73 0 0.0 0.0 0.00 0.00 0.00 85 1011.5
20260510050537 73 0 0.0 0.0 0.00 0.00 0.00 85 1011.6
20260510050055 73 0 0.0 0.0 0.00 0.00 0.00 84 1011.5
20260510045537 73 0 0.0 0.0 0.00 0.00 0.00 84 1011.4
20260510045037 74 0 0.0 9.0 0.00 0.00 0.00 82 1011.5
20260510044557 74 0 0.0 9.0 0.00 0.00 0.00 82 1011.5
20260510044038 74 0 0.0 9.0 0.00 0.00 0.00 81 1011.4
20260510043538 74 0 1.0 8.0 0.00 0.00 0.00 80 1011.4
20260510043100 74 0 0.0 5.0 0.00 0.00 0.00 80 1011.4
20260510042539 74 0 0.0 5.0 0.00 0.00 0.00 80 1011.6
20260510042044 74 0 0.0 0.0 0.00 0.00 0.00 80 1011.6
20260510041546 74 0 0.0 1.0 0.00 0.00 0.00 82 1011.4
20260510041038 74 0 0.0 3.0 0.00 0.00 0.00 85 1011.4
20260510040538 73 0 0.0 3.0 0.00 0.00 0.00 88 1011.4
20260510040050 72 0 0.0 0.0 0.00 0.00 0.00 88 1011.5
20260510035538 72 0 0.0 0.0 0.00 0.00 0.00 89 1011.2
20260510035038 72 0 0.0 0.0 0.00 0.00 0.00 89 1011.0
20260510034547 71 0 0.0 0.0 0.00 0.00 0.00 89 1011.0
20260510034038 71 0 0.0 0.0 0.00 0.00 0.00 89 1011.1
20260510033537 71 0 0.0 0.0 0.00 0.00 0.00 89 1011.1
20260510033101 71 0 0.0 0.0 0.00 0.00 0.00 89 1010.8
20260510032537 71 0 0.0 0.0 0.00 0.00 0.00 89 1010.7
20260510032039 72 0 0.0 0.0 0.00 0.00 0.00 89 1010.7
20260510031550 72 0 0.0 0.0 0.00 0.00 0.00 89 1010.6
20260510031039 72 0 0.0 0.0 0.00 0.00 0.00 89 1010.5
20260510030542 72 0 0.0 0.0 0.00 0.00 0.00 88 1010.3
20260510030049 72 0 0.0 0.0 0.00 0.00 0.00 88 1010.3
20260510025538 72 0 0.0 0.0 0.00 0.00 0.00 88 1010.2
20260510025038 72 0 0.0 0.0 0.00 0.00 0.00 88 1010.2
20260510024549 72 0 0.0 0.0 0.00 0.00 0.00 87 1010.2
20260510024038 72 0 0.0 0.0 0.00 0.00 0.00 87 1010.0
20260510023538 73 0 0.0 0.0 0.00 0.00 0.00 87 1009.9
20260510023048 73 0 0.0 0.0 0.00 0.00 0.00 87 1009.9
20260510022538 73 0 0.0 0.0 0.00 0.00 0.00 87 1009.8
20260510022039 73 0 0.0 0.0 0.00 0.00 0.00 86 1009.7
20260510021552 73 0 0.0 0.0 0.00 0.00 0.00 86 1009.7
20260510021037 73 0 0.0 0.0 0.00 0.00 0.00 85 1009.7
20260510020538 73 0 0.0 0.0 0.00 0.00 0.00 85 1009.6
20260510020049 74 0 0.0 0.0 0.00 0.00 0.00 85 1009.7
20260510015540 74 0 0.0 0.0 0.00 0.00 0.00 84 1009.6
20260510015038 74 0 0.0 0.0 0.00 0.00 0.00 84 1009.6
20260510014550 74 0 0.0 0.0 0.00 0.00 0.00 84 1009.5
20260510014038 75 0 0.0 0.0 0.00 0.00 0.00 84 1009.3
20260510013538 75 0 0.0 0.0 0.00 0.00 0.00 84 1009.3
20260510013050 75 0 0.0 0.0 0.00 0.00 0.00 83 1009.1
20260510012541 76 0 0.0 0.0 0.00 0.00 0.00 82 1009.0
20260510012038 76 0 0.0 0.0 0.00 0.00 0.00 82 1008.8
20260510011550 77 0 0.0 0.0 0.00 0.00 0.00 81 1008.8
20260510011037 77 0 0.0 0.0 0.00 0.00 0.00 80 1008.9
20260510010538 78 0 0.0 0.0 0.00 0.00 0.00 80 1009.0
20260510010046 79 0 0.0 0.0 0.00 0.00 0.00 80 1008.9
20260510005539 79 0 0.0 1.0 0.00 0.00 0.00 79 1008.8
20260510005038 80 0 0.0 6.0 0.00 0.00 0.00 80 1008.7
20260510004546 80 0 0.0 6.0 0.00 0.00 0.00 81 1008.6
20260510004038 80 0 0.0 6.0 0.00 0.00 0.00 81 1008.6
20260510003539 81 0 0.0 0.0 0.00 0.00 0.00 81 1008.5
20260510003045 81 0 0.0 0.0 0.00 0.00 0.00 80 1008.4
20260510002541 82 0 0.0 0.0 0.00 0.00 0.00 80 1008.4
20260510002038 82 0 0.0 0.0 0.00 0.00 0.00 79 1008.3
20260510001549 82 0 0.0 0.0 0.00 0.00 0.00 79 1008.3
20260510001039 83 0 0.0 0.0 0.00 0.00 0.00 77 1008.3
20260510000539 83 0 0.0 0.0 0.00 0.00 0.00 76 1008.2
20260510000051 84 0 0.0 0.0 0.00 0.00 0.00 73 1008.2
20260509235538 84 0 0.0 0.0 0.00 0.00 0.00 72 1008.2
20260509235038 85 0 0.0 0.0 0.00 0.00 0.00 73 1008.1
20260509234549 85 0 0.0 0.0 0.00 0.00 0.00 68 1008.2
20260509234039 86 0 0.0 0.0 0.00 0.00 0.00 70 1008.2
20260509233538 86 0 0.0 0.0 0.00 0.00 0.00 70 1008.1
20260509233056 86 0 0.0 0.0 0.00 0.00 0.00 70 1008.2
20260509232540 86 0 0.0 0.0 0.00 0.00 0.00 74 1008.1
20260509232038 86 0 0.0 0.0 0.00 0.00 0.00 71 1008.2
20260509231548 85 0 0.0 0.0 0.00 0.00 0.00 72 1008.2
20260509231039 85 0 0.0 0.0 0.00 0.00 0.00 73 1008.2
20260509230540 86 0 0.0 0.0 0.00 0.00 0.00 72 1008.1
20260509230051 87 0 0.0 0.0 0.00 0.00 0.00 70 1008.0
20260509225539 87 0 0.0 0.0 0.00 0.00 0.00 70 1008.1
20260509225041 86 0 0.0 0.0 0.00 0.00 0.00 72 1007.9
20260509224546 86 0 0.0 0.0 0.00 0.00 0.00 74 1007.9
20260509224038 85 0 0.0 0.0 0.00 0.00 0.00 74 1007.8
20260509223538 85 0 0.0 0.0 0.00 0.00 0.00 75 1007.7
20260509223047 85 0 0.0 0.0 0.00 0.00 0.00 74 1007.7
20260509222540 85 0 0.0 0.0 0.00 0.00 0.00 74 1007.7
20260509222039 85 0 0.0 0.0 0.00 0.00 0.00 75 1007.5
20260509221549 84 0 0.0 0.0 0.00 0.00 0.00 75 1007.5
20260509221039 84 0 0.0 0.0 0.00 0.00 0.00 73 1007.5
20260509220536 85 0 0.0 0.0 0.00 0.00 0.00 73 1007.6
20260509220046 85 0 0.0 0.0 0.00 0.00 0.00 71 1007.5
20260509215537 86 0 0.0 0.0 0.00 0.00 0.00 69 1007.8
20260509215037 86 0 0.0 0.0 0.00 0.00 0.00 67 1007.9
20260509214605 86 0 0.0 1.0 0.00 0.00 0.00 64 1007.8